sat.trackr.live / text

‹ back to catalog

AMOS-4

NORAD 39237 · 2013-045A

PAYLOAD ACTIVE UNKNOWN

§ Identity

Operator
Country
ISRA
Launch date
2013-08-31
Launch site
TYMSC
Launch vehicle
Mass (kg)
RCS (m²)
7.94

Purposes: comms

External: N2YO · Heavens-Above · Gunter

§ Orbital elements

Epoch: 2026-05-25T04:03:07.986816Z

Period
1,436.11 min
Inclination
0.0126°
Eccentricity
0.0002808
Mean motion
1.00270662 rev/d
Perigee alt
35,775.1 km
Apogee alt
35,798.7 km
Semi-major
42,165.0 km
B*
0.0000e+0
RAAN
289.9326°
Arg perigee
113.8156°
Mean anomaly
324.8061°
Rev number
4,672

§ Raw data

AMOS-41 39237U 13045A   26145.16884244  .00000005  00000+0  00000+0 0  99952 39237   0.0126 289.9326 0002808 113.8156 324.8061  1.00270662 46724

JSON: /api/v1/satellites/39237 · /tle

For live sub-satellite position, see the globe view (requires WebGL).

§ Visibility from observer

Set your observer location to see the next 7 days of passes ≥ 10°. The values pass through the URL so the page stays shareable.

No JS? Fill the form by hand. The geolocation button needs JavaScript.